Regional Weather Roundup
Issued by NWS Albany, NY

Home | Current Version | Previous Version | Graphics & Text | Print | Product List | Glossary On
Versions: 1 2 3 4 5 6 7 8 9 10 11 12 13 14 15 16 17 18 19 20 21 22 23 24 25 26 27 28 29 30 31 32 33 34 35 36 37 38 39 40 41 42 43 44 45 46 47 48 49 50
000
ASUS41 KALY 160910
RWRALY

NEW YORK STATE HOURLY WEATHER ROUNDUP
NATIONAL WEATHER SERVICE ALBANY NY
400 AM EST TUE JAN 16 2018

NOTE: "FAIR" INDICATES FEW OR NO CLOUDS BELOW 12,000 FEET WITH NO
SIGNIFICANT WEATHER AND/OR NO OBSTRUCTIONS TO VISIBILITY.

NYZ032-033-038>043-046>054-057>066-NYZ062>081-082-084-161000-
EAST


CITY           SKY/WX    TMP DP  RH WIND       PRES   REMARKS
ALBANY         LGT SNOW  16   8  71 CALM      30.48F
GLENS FALLS    LGT SNOW  11   8  88 E3        30.46F FOG
POUGHKEEPSIE   CLOUDY    21  12  68 CALM      30.49S
NEWBURGH       CLOUDY    21  16  79 CALM      30.48S
MONTGOMERY     CLOUDY    22  13  68 CALM      30.46S
WHITE PLAINS   MOCLDY    22  15  75 CALM      30.47S
ISLIP          CLOUDY    24  21  88 CALM      30.49R
NEW YORK CITY  CLOUDY    25  18  74 E3        30.51S
CENTRAL PARK   CLOUDY    26  21  81 NE5       30.52S WCI  20
$$

NYZ005>009-017-018-044>046-055-056-161000-
CENTRAL


CITY           SKY/WX    TMP DP  RH WIND       PRES   REMARKS
FULTON         LGT SNOW  18  15  88 VRB3      30.35F FOG
SYRACUSE       LGT SNOW  16  16 100 E5        30.36F FOG     WCI   9
ROME           LGT SNOW  17  14  88 E8        30.40F FOG     WCI   7
ELMIRA         LGT SNOW  22  20  92 NE3       30.33F FOG
BINGHAMTON     NOT AVBL
MONTICELLO     FLURRIES  18  15  88 E3        30.39F
$$

NYZ026>034-041>043-087-161000-
NORTH


CITY           SKY/WX    TMP DP  RH WIND       PRES   REMARKS
WATERTOWN      CLOUDY    21   6  52 NE5       30.38S HAZE    WCI  15
FORT DRUM      NOT AVBL
OGDENSBURG     LGT SNOW   6   3  86 CALM      30.40F
MASSENA        LGT SNOW   5   1  83 E8        30.45F FOG     WCI  -8
SARANAC LAKE   LGT SNOW   8   4  83 MISG      30.28S FOG
PLATTSBURGH    LGT SNOW   3  -1  83 CALM      30.46S FOG
$$

NYZ001>004-010>016-019>021-085-161000-
WEST


CITY           SKY/WX    TMP DP  RH WIND       PRES   REMARKS
NIAGARA FALLS  FLURRIES  25  18  74 S6        30.29F WCI  18
BUFFALO        FLURRIES  22  20  92 S6        30.30S WCI  14
DUNKIRK        FLURRIES  24  19  81 S10       30.31S WCI  14
JAMESTOWN      FLURRIES  18  17  96 S6        30.25S WCI  10
WELLSVILLE     LGT SNOW  20  16  84 S5        30.24S FOG     WCI  13
ROCHESTER      FLURRIES  22  20  92 SW6       30.33S WCI  14
PENN YAN       LGT SNOW  22  18  85 SW9       30.31F FOG     WCI  12
$$

             KEY
       WCI = WIND CHILL INDEX
       VSB = VISIBILITY
       HX  = HEAT INDEX
$$



USA.gov is the U.S. government's official web portal to all federal, state and local government web resources and services.